Theta_e
347 354 362 363 365 367 366 363 362 361 360 359 360 363 365 365 364 364 363 364 364 362 360 360 359 358 357 356 355 354 354 351 349 348 348 347 347 349 348 350 345 337 341
350 351 362 364 365 366 365 363 362 362 362 361 361 363 364 364 364 364 363 364 363 361 360 359 359 358 358 357 355 353 351 350 349 348 348 347 347 347 345 343 341 337 339
350 348 353 363 364 365 365 363 363 363 363 363 363 363 364 364 364 363 363 363 362 361 361 360 359 358 358 357 356 354 351 350 350 349 350 341 341 345 344 344 342 340 340
353 352 349 362 363 364 365 365 364 364 363 363 363 363 363 362 363 363 363 363 362 361 360 360 359 359 358 357 355 354 352 353 352 352 350 349 340 345 344 344 343 341 340
354 356 357 361 362 363 364 364 365 364 364 363 362 362 362 362 362 362 364 363 361 361 361 360 359 358 358 357 356 354 354 355 356 354 353 351 341 344 345 344 342 343 341
359 357 359 361 361 361 363 364 365 365 364 363 362 362 361 361 360 361 361 362 362 361 361 361 360 359 358 357 357 357 357 357 357 348 349 349 343 349 346 346 344 341 340
358 357 357 361 360 359 360 362 364 364 364 363 362 361 361 360 359 359 359 359 359 360 360 360 361 361 360 359 358 358 358 356 351 345 342 351 345 349 348 346 344 342 340
353 355 356 360 361 360 360 360 362 363 363 363 362 361 361 360 359 358 358 359 359 360 360 360 361 360 359 359 359 358 358 355 349 343 341 344 349 351 349 347 346 344 341
349 353 355 355 357 360 360 360 361 362 361 361 362 361 361 360 360 360 359 359 359 359 360 360 360 361 360 359 359 358 358 356 351 345 343 344 352 354 351 349 348 346 344
347 353 353 356 351 350 353 360 360 360 360 360 360 360 359 359 359 358 357 357 359 360 360 361 361 361 361 360 359 359 358 357 350 345 343 341 354 355 353 351 349 348 346
345 349 354 352 353 350 346 354 359 357 358 358 358 358 356 351 349 350 353 353 357 359 360 360 360 360 360 360 359 359 359 352 346 345 345 354 356 357 354 352 351 349 348
334 334 342 353 354 353 350 353 352 350 351 350 349 352 352 350 351 351 355 354 358 358 358 359 359 359 359 351 348 356 354 349 349 343 344 356 357 358 355 355 354 351 350
334 330 330 348 361 355 355 355 356 356 355 356 357 359 359 359 363 359 354 354 354 357 353 352 352 351 335 333 340 346 350 348 350 347 351 356 357 358 356 356 355 354 353
337 332 330 345 359 356 348 348 350 354 357 359 361 358 360 359 357 356 353 357 353 352 351 346 336 334 336 335 334 342 344 348 343 347 351 355 354 357 357 357 357 356 354
329 330 343 353 363 363 362 354 355 353 348 348 352 344 343 346 345 343 342 341 341 341 347 348 339 341 336 335 341 339 337 340 347 348 348 354 352 353 356 358 358 357 356
350 351 351 352 358 359 350 357 349 352 346 346 343 341 345 344 344 341 340 340 338 338 336 335 338 342 341 343 336 339 339 341 345 345 354 347 351 351 354 357 357 356 356
349 352 349 349 346 349 350 350 350 347 340 341 338 339 338 339 340 343 339 340 335 335 336 337 339 339 337 335 335 335 337 341 339 339 336 347 350 351 352 354 355 352 355
345 347 347 342 343 344 343 345 347 341 345 342 341 340 336 335 336 338 334 335 335 335 333 334 334 332 331 335 335 334 333 335 340 340 338 342 345 346 350 353 354 353 354
340 341 341 343 340 342 344 344 342 343 342 342 340 339 336 333 334 337 336 337 338 336 334 333 331 330 328 328 327 332 338 336 336 336 344 340 340 342 340 348 351 350 352
337 339 341 340 341 343 343 343 342 341 339 341 339 337 336 337 335 338 338 338 337 335 336 335 335 333 331 329 327 329 334 335 335 335 338 344 336 333 344 351 350 348 349
336 337 338 338 341 340 337 335 336 337 338 337 338 335 335 337 337 339 336 337 339 336 337 336 334 329 327 328 326 330 331 331 330 334 335 341 339 339 342 340 344 347 347
333 335 336 336 339 338 334 334 336 336 334 336 337 340 338 338 337 336 338 336 339 334 335 333 334 330 328 326 325 322 318 324 326 333 337 337 334 332 335 334 336 338 340
327 330 331 334 335 337 337 332 331 332 330 330 332 330 332 331 331 333 335 335 337 338 330 332 334 332 323 326 326 322 318 316 324 330 328 336 335 329 328 326 333 333 336
321 325 330 332 334 331 336 330 332 328 325 325 325 329 331 330 329 333 333 335 334 333 332 331 328 331 330 321 323 324 328 325 320 317 326 328 332 333 333 330 329 329 332
321 322 328 332 333 334 334 333 326 324 324 324 323 326 331 331 332 329 328 330 331 333 332 332 332 330 328 325 321 320 322 322 324 323 317 321 330 334 331 326 324 324 325
318 319 323 326 329 332 331 331 328 327 324 322 324 323 323 323 322 328 330 330 332 332 330 329 331 329 328 327 325 323 319 316 316 316 314 316 318 326 326 324 323 321 322
Wind_Speed
15 13 13 12 8 10 13 11 10 9 10 7 7 8 8 10 10 10 10 10 10 11 11 11 11 12 12 12 12 10 9 11 12 13 14 13 13 13 14 11 15 12 12
16 14 13 12 11 10 9 12 12 11 10 7 7 8 8 9 9 9 9 8 9 10 10 10 10 10 10 10 10 8 6 7 8 10 14 13 13 12 13 14 13 11 12
17 13 13 12 12 13 10 8 10 11 11 9 8 6 6 8 9 8 7 7 8 8 8 8 8 7 7 7 8 6 2 3 5 7 11 7 9 11 11 12 11 10 11
17 14 12 13 12 12 12 10 9 9 11 9 8 8 6 5 7 7 6 6 7 7 7 7 6 5 5 4 4 3 2 7 3 5 7 9 10 11 10 9 9 8 9
17 16 14 13 12 11 12 12 10 9 9 9 8 7 7 6 6 6 6 5 5 5 5 5 5 4 4 4 3 3 4 8 12 10 10 10 9 11 11 9 8 8 5
20 16 16 15 12 11 11 12 12 10 9 9 9 8 7 7 6 6 5 5 4 4 4 4 4 4 4 4 4 4 5 8 10 11 10 4 11 16 13 9 8 7 7
14 17 15 16 13 11 9 9 9 10 10 9 9 8 8 7 7 6 6 5 5 5 5 5 5 5 5 5 4 5 6 9 9 11 11 5 11 18 16 12 9 7 6
17 15 13 13 13 13 11 9 8 8 9 9 9 8 8 7 7 7 7 6 6 6 6 7 7 7 6 7 6 6 7 8 10 11 12 2 18 18 17 14 11 9 8
10 15 12 11 11 13 13 11 10 9 9 8 8 8 8 8 7 6 6 6 7 8 8 8 9 9 8 8 9 9 9 11 7 7 11 2 22 20 19 17 14 12 11
8 15 13 11 11 10 10 13 12 10 9 9 8 7 7 7 8 9 9 9 10 10 10 10 10 9 9 10 11 12 14 16 9 10 10 7 20 19 19 18 16 14 13
6 12 14 14 13 12 12 11 9 10 8 5 6 8 7 6 10 12 12 14 15 14 13 12 11 11 12 13 14 18 17 7 11 9 8 18 22 21 19 18 17 16 15
18 17 24 15 13 14 10 10 7 8 7 7 8 8 7 8 7 9 10 19 15 16 13 13 13 14 9 8 9 18 8 9 11 9 3 20 20 19 19 18 17 17 16
8 8 21 21 5 9 12 8 6 6 5 6 6 7 6 5 4 4 3 2 5 10 6 7 5 5 8 10 17 18 10 9 5 3 8 13 12 13 15 16 17 18 17
21 16 21 17 4 11 13 8 5 5 5 5 4 2 2 3 4 5 2 0 5 4 5 8 5 5 5 8 9 19 18 10 6 1 8 14 15 15 16 17 18 19 18
14 12 8 13 3 8 5 5 3 2 1 5 4 4 4 5 4 5 4 4 5 6 1 6 5 4 8 11 11 12 9 13 12 8 2 17 11 8 17 18 20 21 21
9 10 12 10 6 5 7 4 2 3 3 1 5 4 5 4 4 5 5 4 5 6 6 6 3 3 7 7 10 6 8 10 15 5 2 4 13 17 19 17 17 16 19
10 10 9 7 11 10 6 2 3 3 4 4 5 3 4 5 5 5 4 4 5 6 7 5 5 5 5 4 4 7 9 9 4 6 5 7 9 21 9 11 17 16 23
11 10 9 10 6 9 9 7 4 3 1 3 3 4 3 6 3 5 3 4 5 4 4 4 5 7 7 6 5 8 7 5 5 9 5 4 4 3 7 16 20 16 17
14 13 11 9 11 7 4 6 5 3 4 2 1 4 1 3 5 4 2 3 3 4 3 5 5 4 6 7 8 6 6 7 8 7 3 3 2 3 3 11 14 9 12
10 8 7 6 6 5 5 4 4 2 4 2 3 4 2 1 6 3 2 3 1 4 3 4 4 5 5 6 8 7 6 6 6 7 3 1 1 5 5 6 7 6 13
10 8 9 10 9 8 5 5 4 4 4 3 3 5 4 3 4 1 4 4 4 3 2 2 2 5 4 5 4 5 5 8 7 6 6 0 6 15 19 15 14 8 5
7 6 8 7 8 8 8 8 7 6 5 4 4 2 2 2 3 3 4 4 4 4 5 6 1 3 3 5 3 4 4 5 5 6 5 5 11 8 11 8 10 10 9
5 5 6 4 5 5 6 6 7 7 6 5 5 6 6 8 8 9 5 4 4 3 4 5 3 4 4 3 7 4 4 3 6 3 6 5 4 3 4 6 7 8 7
2 3 4 4 3 5 5 6 8 6 6 5 5 4 2 6 9 9 5 7 6 4 5 6 7 4 3 4 4 5 5 4 3 5 3 0 5 5 8 5 2 3 6
7 5 3 1 4 3 4 6 8 9 7 7 8 9 7 6 6 6 8 9 8 5 6 7 6 4 4 3 4 4 4 3 3 4 6 4 3 5 6 7 4 3 5
10 10 6 6 4 3 4 4 7 7 8 9 9 9 7 8 10 8 6 5 6 5 6 7 6 6 6 5 3 5 3 3 4 2 3 4 3 4 6 6 4 4 5
Wind_Direction
102 107 100 91 94 119 130 128 120 115 115 121 119 102 85 89 91 93 95 98 100 101 102 101 98 91 85 82 79 74 81 91 97 104 103 94 83 68 54 84 71 76 70
107 104 102 100 101 104 122 133 130 126 122 125 129 120 109 104 104 105 103 99 99 102 105 107 106 103 100 99 96 94 91 100 115 123 122 106 93 82 71 68 71 79 77
103 122 113 109 106 110 114 125 131 135 131 135 133 126 118 118 121 116 112 111 111 110 109 109 109 106 104 106 110 114 144 170 162 162 184 97 107 98 89 86 83 83 82
122 124 120 115 107 112 119 124 128 137 135 136 138 139 134 126 124 126 130 131 130 131 128 123 120 123 121 118 123 131 253 283 257 240 238 246 116 119 112 105 100 96 100
119 106 115 109 112 122 127 128 130 137 136 138 148 149 147 143 145 145 142 141 144 143 142 143 144 153 161 166 179 190 253 290 305 294 251 203 140 139 134 133 133 111 93
104 115 123 119 123 127 133 140 143 147 148 150 155 159 163 170 163 163 166 163 182 175 179 184 184 188 196 199 220 253 266 284 302 290 283 165 130 147 150 152 116 124 121
130 119 119 122 127 129 131 142 148 150 152 160 163 169 174 184 177 182 186 190 207 207 208 220 224 218 235 235 239 260 280 296 296 291 289 151 130 153 157 153 155 156 157
98 111 128 127 132 136 141 148 148 155 157 167 169 177 183 191 196 199 197 213 226 231 225 233 232 238 234 246 250 254 264 278 298 300 307 105 149 159 160 160 168 178 183
137 115 128 140 143 144 146 153 161 164 167 171 179 183 194 201 209 218 231 222 232 245 243 242 242 241 241 245 245 243 248 255 259 273 286 150 163 163 165 167 176 187 195
167 135 145 144 159 161 163 165 168 169 177 180 188 198 212 218 222 218 223 234 231 237 241 243 247 246 249 250 251 248 240 240 243 242 249 268 168 164 168 172 181 191 201
232 148 149 159 162 178 161 166 166 173 178 198 210 218 218 236 221 233 225 224 212 217 225 234 245 251 248 250 249 247 244 244 242 238 230 151 167 170 174 178 185 196 207
33 9 347 154 162 181 155 138 174 172 183 189 206 196 209 242 245 222 220 219 211 212 218 229 229 238 269 300 274 243 240 239 250 248 289 163 167 169 177 184 189 197 209
36 37 327 296 167 161 106 152 186 178 189 196 202 181 218 234 263 244 255 218 214 216 222 224 291 294 42 11 332 318 211 231 266 199 130 153 168 174 184 192 196 198 206
268 168 200 266 304 81 90 321 330 162 158 182 149 170 241 268 277 309 313 172 212 236 192 105 247 274 74 88 299 312 316 258 245 57 144 163 176 188 193 202 203 205 209
207 207 191 212 41 57 127 162 88 104 107 117 133 57 30 355 18 350 1 328 326 329 125 159 231 191 183 199 203 201 275 313 323 294 155 178 172 205 219 206 210 208 210
60 36 32 57 29 23 51 21 95 311 84 103 67 56 42 20 20 349 340 330 353 11 355 345 265 193 199 200 238 207 212 270 228 187 87 198 183 216 222 215 221 228 228
75 45 26 29 34 7 52 285 241 135 160 108 111 94 72 52 9 340 319 0 22 358 326 329 347 348 331 302 251 225 231 257 295 294 220 186 206 222 218 211 226 211 242
31 68 34 18 57 23 353 344 346 60 30 107 146 146 133 148 100 306 14 38 9 314 331 355 8 359 341 331 314 311 305 291 271 251 292 329 107 101 237 226 224 209 230
39 29 37 21 21 8 338 325 359 0 300 95 282 115 83 89 95 307 122 85 347 295 349 24 11 344 327 319 309 303 335 336 333 330 9 9 320 241 299 249 215 225 251
44 42 45 36 32 336 314 304 286 167 281 266 236 102 148 246 138 22 332 137 221 317 48 31 346 318 298 291 314 323 320 316 305 301 286 273 305 297 272 82 168 206 230
36 48 32 31 19 344 325 334 337 333 244 205 213 150 122 21 19 13 329 1 350 343 7 227 293 309 319 302 323 310 318 298 287 284 258 303 37 30 26 24 16 21 20
72 39 45 16 29 353 7 336 341 333 328 330 336 63 144 251 248 262 13 341 317 348 333 315 218 290 286 304 311 322 305 325 307 336 18 56 64 46 62 19 47 345 1
60 101 83 50 20 351 6 340 343 335 341 347 345 348 10 352 322 333 326 304 303 280 280 283 233 277 288 294 297 234 310 312 339 345 331 56 86 98 72 40 20 350 344
6 318 100 109 76 352 2 337 324 301 289 282 287 267 263 234 237 241 234 240 250 266 289 294 288 269 249 293 302 294 267 244 269 318 354 274 120 111 95 95 109 7 348
296 310 312 73 56 42 9 325 316 308 306 320 308 317 317 311 265 269 269 260 250 245 251 251 269 285 263 268 292 298 311 311 293 226 286 303 135 121 105 96 88 59 13
318 318 18 3 9 328 284 281 277 302 305 305 307 300 294 285 276 268 289 288 314 245 259 268 265 265 258 274 294 302 287 280 290 320 325 322 331 117 101 87 88 77 65